星链-31062 (STARLINK-31062 )

导读 | 星芒AI

STARLINK-31062 是 SpaceX 星链计划中的一颗低轨通信卫星,属于第三代星链卫星群。该卫星于2024年发射,旨在为全球用户提供高速互联网服务,提升偏远地区的网络覆盖。它采用先进推进系统和激光通信技术,提高数据传输效率和卫星间通信能力。作为星链星座的一部分,STARLINK-31062 有助于构建更稳定、低延迟的全球网络基础设施。

基本信息
目录编号:
58590
目录名称:
STARLINK-31062
国际标识:
2023-200B
轨道中心:
EARTH
卫星名称:
星链-31062
卫星全名:
星链-31062 (STARLINK-31062 )
卫星状态:
在轨 (已飞行731 天)
发射日期:
2023-12-19 UTC
国别 :
美国 (US)
星等 :
--
轨道信息
数据来源 国际轨道数据
星历时间: 2025-12-19T08:54:30+0800
20小时前
查看轨道信息
半长轴: 6937.186km
偏心率: 0.0001569
轨道倾角: 43.003°
近地点辐角 259.503°
升交点赤经 250.078°
平近点角 100.564°
近地点: 557.96km
远地点: 560.138km
周期: 95.837分钟
每日圈数: 15.025461
详细信息
固有亮度:
5
最大亮度:
0.3
卫星平台:
Starlink v2.0 mini
覆盖范围:
全球
运营商:
太空探索技术公司
运营商所在国:
美国
制造商(研发单位):
太空探索技术公司
制造商所在国:
美国
使用方式:
暂无
卫星简介
星链(Starlink)计划是由太空探索技术公司(SpaceX)提出的一个巨型低轨卫星互联网星座项目,计划在2019年至2024年间在太空搭建由约1.2万颗卫星组成的“星链”网络,其中1584颗将部署在地球上空550千米处的近地轨道,并从2020年开始工作。该卫星仍在工作。
2D轨道图
3D轨道图
轨道高度分析图
轨道倾角分析图
轨道综合分析图
查看轨道综合分析图